"Period start","avg(HW err(1)/warn(2) (#))","avg(Visibility (m))","avg(Weather code (#))","avg(Precip intensity (mm/h))","min(HW err(1)/warn(2) (#))","max(HW err(1)/warn(2) (#))","std(HW err(1)/warn(2) (#))","med(HW err(1)/warn(2) (#))","min(Visibility (m))","max(Visibility (m))","std(Visibility (m))","med(Visibility (m))","min(Weather code (#))","max(Weather code (#))","std(Weather code (#))","med(Weather code (#))","min(Precip intensity (mm/h))","max(Precip intensity (mm/h))","std(Precip intensity (mm/h))","med(Precip intensity (mm/h))"
2014-06-10 00:00:00,0,45783,0,0.00,0,0,0,0,36772,50000,4679,47231,0,0,0,0,0.00,0.00,0.00,0.00
2014-06-10 00:10:00,0,35335,0,0.00,0,0,0,0,25812,47672,8051,34889,0,0,0,0,0.00,0.00,0.00,0.00
2014-06-10 00:20:00,0,44423,0,0.00,0,0,0,0,28557,50000,6586,46582,0,0,0,0,0.00,0.00,0.00,0.00
2014-06-10 00:30:00,0,38886,0,0.00,0,0,0,0,27275,50000,7447,40053,0,0,0,0,0.00,0.00,0.00,0.00
2014-06-10 00:40:00,0,44765,0,0.00,0,0,0,0,32871,50000,4961,44444,0,0,0,0,0.00,0.00,0.00,0.00
2014-06-10 00:50:00,0,43883,0,0.00,0,0,0,0,39276,49861,3219,43812,0,0,0,0,0.00,0.00,0.00,0.00
2014-06-10 01:00:00,0,38556,0,0.00,0,0,0,0,27401,50000,8200,37043,0,0,0,0,0.00,0.00,0.00,0.00
2014-06-10 01:10:00,0,39676,0,0.00,0,0,0,0,25840,50000,7403,39008,0,0,0,0,0.00,0.00,0.00,0.00
2014-06-10 01:20:00,0,43016,0,0.00,0,0,0,0,32047,50000,5606,42961,0,0,0,0,0.00,0.00,0.00,0.00
2014-06-10 01:30:00,0,41038,0,0.00,0,0,0,0,23219,50000,8511,44628,0,0,0,0,0.00,0.00,0.00,0.00
2014-06-10 01:40:00,0,36991,0,0.00,0,0,0,0,24893,50000,8959,33166,0,0,0,0,0.00,0.00,0.00,0.00
2014-06-10 01:50:00,0,42710,0,0.00,0,0,0,0,34117,50000,4636,43239,0,0,0,0,0.00,0.00,0.00,0.00
2014-06-10 02:00:00,0,39726,0,0.00,0,0,0,0,24674,50000,7890,38223,0,0,0,0,0.00,0.00,0.00,0.00
2014-06-10 02:10:00,0,44136,0,0.00,0,0,0,0,32501,50000,6221,46404,0,0,0,0,0.00,0.00,0.00,0.00
2014-06-10 02:20:00,0,43068,0,0.00,0,0,0,0,33153,50000,6024,43041,0,0,0,0,0.00,0.00,0.00,0.00
2014-06-10 02:30:00,0,39887,0,0.00,0,0,0,0,30963,48973,5098,39805,0,0,0,0,0.00,0.00,0.00,0.00
2014-06-10 02:40:00,0,40510,0,0.00,0,0,0,0,32698,50000,6210,38599,0,0,0,0,0.00,0.00,0.00,0.00
2014-06-10 02:50:00,0,41086,0,0.00,0,0,0,0,23712,50000,8069,41536,0,0,0,0,0.00,0.00,0.00,0.00
2014-06-10 03:00:00,0,38961,0,0.00,0,0,0,0,28321,50000,7514,38278,0,0,0,0,0.00,0.00,0.00,0.00
2014-06-10 03:10:00,0,42576,0,0.00,0,0,0,0,35054,49931,4800,41914,0,0,0,0,0.00,0.00,0.00,0.00
2014-06-10 03:20:00,0,46687,0,0.00,0,0,0,0,40840,50000,3360,48532,0,0,0,0,0.00,0.00,0.00,0.00
2014-06-10 03:30:00,0,40230,0,0.00,0,0,0,0,27932,50000,7848,41066,0,0,0,0,0.00,0.00,0.00,0.00
2014-06-10 03:40:00,0,40472,0,0.00,0,0,0,0,34627,50000,4557,40156,0,0,0,0,0.00,0.00,0.00,0.00
2014-06-10 03:50:00,0,49115,0,0.00,0,0,0,0,46458,50000,1252,50000,0,0,0,0,0.00,0.00,0.00,0.00
2014-06-10 04:00:00,0,45655,0,0.00,0,0,0,0,40262,50000,3077,45184,0,0,0,0,0.00,0.00,0.00,0.00
2014-06-10 04:10:00,0,46481,0,0.00,0,0,0,0,37799,50000,4740,49617,0,0,0,0,0.00,0.00,0.00,0.00
2014-06-10 04:20:00,0,45527,0,0.00,0,0,0,0,33554,50000,6395,50000,0,0,0,0,0.00,0.00,0.00,0.00
2014-06-10 04:30:00,0,49035,0,0.00,0,0,0,0,45859,50000,1525,49998,0,0,0,0,0.00,0.00,0.00,0.00
2014-06-10 04:40:00,0,45805,0,0.00,0,0,0,0,41446,50000,3143,45416,0,0,0,0,0.00,0.00,0.00,0.00
2014-06-10 04:50:00,0,47111,0,0.00,0,0,0,0,39871,50000,3784,49138,0,0,0,0,0.00,0.00,0.00,0.00
2014-06-10 05:00:00,0,46960,0,0.00,0,0,0,0,42827,50000,2417,47295,0,0,0,0,0.00,0.00,0.00,0.00
2014-06-10 05:10:00,0,48739,0,0.00,0,0,0,0,41394,50000,2521,49913,0,0,0,0,0.00,0.00,0.00,0.00
2014-06-10 05:20:00,0,47282,0,0.00,0,0,0,0,41773,50000,2755,48078,0,0,0,0,0.00,0.00,0.00,0.00
2014-06-10 05:30:00,0,47871,0,0.00,0,0,0,0,41342,50000,2970,49720,0,0,0,0,0.00,0.00,0.00,0.00
2014-06-10 05:40:00,0,47656,0,0.00,0,0,0,0,43494,50000,2313,48142,0,0,0,0,0.00,0.00,0.00,0.00
2014-06-10 05:50:00,0,45099,0,0.00,0,0,0,0,36501,50000,4876,46408,0,0,0,0,0.00,0.00,0.00,0.00
2014-06-10 06:00:00,0,48320,0,0.00,0,0,0,0,43299,50000,2474,50000,0,0,0,0,0.00,0.00,0.00,0.00
2014-06-10 06:10:00,0,47765,0,0.00,0,0,0,0,43662,50000,2219,47866,0,0,0,0,0.00,0.00,0.00,0.00
2014-06-10 06:20:00,0,48294,0,0.00,0,0,0,0,43034,50000,2200,49324,0,0,0,0,0.00,0.00,0.00,0.00
2014-06-10 06:30:00,0,48958,0,0.00,0,0,0,0,44953,50000,1561,49656,0,0,0,0,0.00,0.00,0.00,0.00
2014-06-10 06:40:00,0,47279,0,0.00,0,0,0,0,41331,50000,3291,49166,0,0,0,0,0.00,0.00,0.00,0.00
2014-06-10 06:50:00,0,47983,0,0.00,0,0,0,0,40582,50000,3214,50000,0,0,0,0,0.00,0.00,0.00,0.00
2014-06-10 07:00:00,0,43610,0,0.00,0,0,0,0,32876,50000,5572,43766,0,0,0,0,0.00,0.00,0.00,0.00
2014-06-10 07:10:00,0,47800,0,0.00,0,0,0,0,42442,50000,2782,49111,0,0,0,0,0.00,0.00,0.00,0.00
2014-06-10 07:20:00,0,49274,0,0.00,0,0,0,0,46931,50000,1211,50000,0,0,0,0,0.00,0.00,0.00,0.00
2014-06-10 07:30:00,0,47410,0,0.00,0,0,0,0,43331,50000,2414,47336,0,0,0,0,0.00,0.00,0.00,0.00
2014-06-10 07:40:00,0,49073,0,0.00,0,0,0,0,45270,50000,1592,50000,0,0,0,0,0.00,0.00,0.00,0.00
2014-06-10 07:50:00,0,49864,0,0.00,0,0,0,0,49318,50000,241,50000,0,0,0,0,0.00,0.00,0.00,0.00
2014-06-10 08:00:00,0,49649,0,0.00,0,0,0,0,48227,50000,609,50000,0,0,0,0,0.00,0.00,0.00,0.00
2014-06-10 08:10:00,0,48884,0,0.00,0,0,0,0,46296,50000,1409,50000,0,0,0,0,0.00,0.00,0.00,0.00
2014-06-10 08:20:00,0,48907,0,0.00,0,0,0,0,44741,50000,1921,50000,0,0,0,0,0.00,0.00,0.00,0.00
2014-06-10 08:30:00,0,49220,0,0.00,0,0,0,0,47715,50000,910,49692,0,0,0,0,0.00,0.00,0.00,0.00
2014-06-10 08:40:00,0,44660,0,0.00,0,0,0,0,33447,50000,5496,45684,0,0,0,0,0.00,0.00,0.00,0.00
2014-06-10 08:50:00,0,49551,0,0.00,0,0,0,0,47270,50000,873,50000,0,0,0,0,0.00,0.00,0.00,0.00
2014-06-10 09:00:00,0,44931,0,0.00,0,0,0,0,36294,50000,5651,48416,0,0,0,0,0.00,0.00,0.00,0.00
2014-06-10 09:10:00,0,47235,0,0.00,0,0,0,0,34533,50000,4777,49893,0,0,0,0,0.00,0.00,0.00,0.00
2014-06-10 09:20:00,0,49788,0,0.00,0,0,0,0,48351,50000,499,50000,0,0,0,0,0.00,0.00,0.00,0.00
2014-06-10 09:30:00,0,48915,0,0.00,0,0,0,0,43839,50000,2158,50000,0,0,0,0,0.00,0.00,0.00,0.00
2014-06-10 09:40:00,0,47550,0,0.00,0,0,0,0,42288,50000,2622,48144,0,0,0,0,0.00,0.00,0.00,0.00
2014-06-10 09:50:00,0,43586,0,0.00,0,0,0,0,28979,50000,7123,46749,0,0,0,0,0.00,0.00,0.00,0.00
2014-06-10 10:00:00,0,48393,0,0.00,0,0,0,0,44758,50000,2031,49742,0,0,0,0,0.00,0.00,0.00,0.00
2014-06-10 10:10:00,0,48559,0,0.00,0,0,0,0,41267,50000,2711,50000,0,0,0,0,0.00,0.00,0.00,0.00
2014-06-10 10:20:00,0,49529,0,0.00,0,0,0,0,47067,50000,962,50000,0,0,0,0,0.00,0.00,0.00,0.00
2014-06-10 10:30:00,0,45531,0,0.00,0,0,0,0,37880,50000,3168,45418,0,0,0,0,0.00,0.00,0.00,0.00
2014-06-10 10:40:00,0,49006,0,0.00,0,0,0,0,43142,50000,2160,50000,0,0,0,0,0.00,0.00,0.00,0.00
2014-06-10 10:50:00,0,48708,0,0.00,0,0,0,0,42977,50000,2286,49958,0,0,0,0,0.00,0.00,0.00,0.00
2014-06-10 11:00:00,0,42894,0,0.00,0,0,0,0,29464,50000,6469,43833,0,0,0,0,0.00,0.00,0.00,0.00
2014-06-10 11:10:00,0,41868,0,0.00,0,0,0,0,28963,50000,6991,42564,0,0,0,0,0.00,0.00,0.00,0.00
2014-06-10 11:20:00,0,35491,0,0.00,0,0,0,0,15755,47565,10565,37050,0,0,0,0,0.00,0.00,0.00,0.00
2014-06-10 11:30:00,0,41538,0,0.00,0,0,0,0,35183,48727,4458,41967,0,0,0,0,0.00,0.00,0.00,0.00
2014-06-10 11:40:00,1,29336,0,0.00,0,2,1,1,14811,47008,10593,31143,0,0,0,0,0.00,0.00,0.00,0.00
2014-06-10 11:50:00,0,32457,0,0.00,0,0,0,0,16429,50000,10701,30560,0,0,0,0,0.00,0.00,0.00,0.00
2014-06-10 12:00:00,0,46504,0,0.00,0,0,0,0,38198,50000,3820,47382,0,0,0,0,0.00,0.00,0.00,0.00
2014-06-10 12:10:00,0,48412,0,0.00,0,0,0,0,45623,50000,1623,48844,0,0,0,0,0.00,0.00,0.00,0.00
2014-06-10 12:20:00,0,46618,0,0.00,0,0,0,0,42756,50000,2715,46108,0,0,0,0,0.00,0.00,0.00,0.00
2014-06-10 12:30:00,0,48302,0,0.00,0,0,0,0,43185,50000,2652,50000,0,0,0,0,0.00,0.00,0.00,0.00
2014-06-10 12:40:00,0,48535,0,0.00,0,0,0,0,40142,50000,2918,50000,0,0,0,0,0.00,0.00,0.00,0.00
2014-06-10 12:50:00,0,49936,0,0.00,0,0,0,0,49612,50000,119,50000,0,0,0,0,0.00,0.00,0.00,0.00
2014-06-10 13:00:00,0,50000,0,0.00,0,0,0,0,50000,50000,0,50000,0,0,0,0,0.00,0.00,0.00,0.00
2014-06-10 13:10:00,0,49928,0,0.00,0,0,0,0,49275,50000,218,50000,0,0,0,0,0.00,0.00,0.00,0.00
2014-06-10 13:20:00,0,50000,0,0.00,0,0,0,0,50000,50000,0,50000,0,0,0,0,0.00,0.00,0.00,0.00
2014-06-10 13:30:00,0,50000,0,0.00,0,0,0,0,50000,50000,0,50000,0,0,0,0,0.00,0.00,0.00,0.00
2014-06-10 13:40:00,0,50000,0,0.00,0,0,0,0,50000,50000,0,50000,0,0,0,0,0.00,0.00,0.00,0.00
2014-06-10 13:50:00,0,49632,0,0.00,0,0,0,0,46895,50000,925,50000,0,0,0,0,0.00,0.00,0.00,0.00
2014-06-10 14:00:00,0,49961,0,0.00,0,0,0,0,49686,50000,94,50000,0,0,0,0,0.00,0.00,0.00,0.00
2014-06-10 14:10:00,0,49846,0,0.00,0,0,0,0,48460,50000,462,50000,0,0,0,0,0.00,0.00,0.00,0.00
2014-06-10 14:20:00,0,50000,0,0.00,0,0,0,0,50000,50000,0,50000,0,0,0,0,0.00,0.00,0.00,0.00
2014-06-10 14:30:00,0,50000,0,0.00,0,0,0,0,50000,50000,0,50000,0,0,0,0,0.00,0.00,0.00,0.00
2014-06-10 14:40:00,0,50000,0,0.00,0,0,0,0,50000,50000,0,50000,0,0,0,0,0.00,0.00,0.00,0.00
2014-06-10 14:50:00,0,50000,0,0.00,0,0,0,0,50000,50000,0,50000,0,0,0,0,0.00,0.00,0.00,0.00
2014-06-10 15:00:00,0,49700,0,0.00,0,0,0,0,46999,50000,900,50000,0,0,0,0,0.00,0.00,0.00,0.00
2014-06-10 15:10:00,0,50000,0,0.00,0,0,0,0,50000,50000,0,50000,0,0,0,0,0.00,0.00,0.00,0.00
2014-06-10 15:20:00,0,50000,0,0.00,0,0,0,0,50000,50000,0,50000,0,0,0,0,0.00,0.00,0.00,0.00
2014-06-10 15:30:00,0,50000,0,0.00,0,0,0,0,50000,50000,0,50000,0,0,0,0,0.00,0.00,0.00,0.00
2014-06-10 15:40:00,0,50000,0,0.00,0,0,0,0,50000,50000,0,50000,0,0,0,0,0.00,0.00,0.00,0.00
2014-06-10 15:50:00,0,50000,0,0.00,0,0,0,0,50000,50000,0,50000,0,0,0,0,0.00,0.00,0.00,0.00
2014-06-10 16:00:00,0,50000,0,0.00,0,0,0,0,50000,50000,0,50000,0,0,0,0,0.00,0.00,0.00,0.00
2014-06-10 16:10:00,0,49720,0,0.00,0,0,0,0,48154,50000,595,50000,0,0,0,0,0.00,0.00,0.00,0.00
2014-06-10 16:20:00,0,49765,0,0.00,0,0,0,0,47654,50000,704,50000,0,0,0,0,0.00,0.00,0.00,0.00
2014-06-10 16:30:00,0,47753,0,0.00,0,0,0,0,37599,50000,3925,50000,0,0,0,0,0.00,0.00,0.00,0.00
2014-06-10 16:40:00,0,50000,0,0.00,0,0,0,0,50000,50000,0,50000,0,0,0,0,0.00,0.00,0.00,0.00
2014-06-10 16:50:00,0,48312,0,0.00,0,0,0,0,42732,50000,2213,48950,0,0,0,0,0.00,0.00,0.00,0.00
2014-06-10 17:00:00,0,49851,0,0.00,0,0,0,0,48510,50000,447,50000,0,0,0,0,0.00,0.00,0.00,0.00
2014-06-10 17:10:00,0,49426,0,0.00,0,0,0,0,46295,50000,1125,50000,0,0,0,0,0.00,0.00,0.00,0.00
2014-06-10 17:20:00,0,48789,0,0.00,0,0,0,0,42982,50000,2185,50000,0,0,0,0,0.00,0.00,0.00,0.00
2014-06-10 17:30:00,0,49689,0,0.00,0,0,0,0,48426,50000,622,50000,0,0,0,0,0.00,0.00,0.00,0.00
2014-06-10 17:40:00,0,49623,0,0.00,0,0,0,0,46234,50000,1130,50000,0,0,0,0,0.00,0.00,0.00,0.00
2014-06-10 17:50:00,0,48129,0,0.00,0,0,0,0,42681,50000,2296,49130,0,0,0,0,0.00,0.00,0.00,0.00
2014-06-10 18:00:00,0,48192,0,0.00,0,0,0,0,45241,50000,1914,48703,0,0,0,0,0.00,0.00,0.00,0.00
2014-06-10 18:10:00,0,48984,0,0.00,0,0,0,0,46493,50000,1335,50000,0,0,0,0,0.00,0.00,0.00,0.00
2014-06-10 18:20:00,0,49907,0,0.00,0,0,0,0,49535,50000,156,50000,0,0,0,0,0.00,0.00,0.00,0.00
2014-06-10 18:30:00,0,49543,0,0.00,0,0,0,0,47261,50000,858,50000,0,0,0,0,0.00,0.00,0.00,0.00
2014-06-10 18:40:00,0,49862,0,0.00,0,0,0,0,48812,50000,355,50000,0,0,0,0,0.00,0.00,0.00,0.00
2014-06-10 18:50:00,0,49718,0,0.00,0,0,0,0,48205,50000,589,50000,0,0,0,0,0.00,0.00,0.00,0.00
2014-06-10 19:00:00,0,48519,0,0.00,0,0,0,0,42793,50000,2104,49182,0,0,0,0,0.00,0.00,0.00,0.00
2014-06-10 19:10:00,0,49792,0,0.00,0,0,0,0,47925,50000,622,50000,0,0,0,0,0.00,0.00,0.00,0.00
2014-06-10 19:20:00,0,49845,0,0.00,0,0,0,0,48450,50000,465,50000,0,0,0,0,0.00,0.00,0.00,0.00
2014-06-10 19:30:00,0,49796,0,0.00,0,0,0,0,47964,50000,611,50000,0,0,0,0,0.00,0.00,0.00,0.00
2014-06-10 19:40:00,0,49628,0,0.00,0,0,0,0,47766,50000,677,50000,0,0,0,0,0.00,0.00,0.00,0.00
2014-06-10 19:50:00,0,49441,0,0.00,0,0,0,0,45657,50000,1315,50000,0,0,0,0,0.00,0.00,0.00,0.00
2014-06-10 20:00:00,0,49836,0,0.00,0,0,0,0,48364,50000,491,50000,0,0,0,0,0.00,0.00,0.00,0.00
2014-06-10 20:10:00,0,50000,0,0.00,0,0,0,0,50000,50000,0,50000,0,0,0,0,0.00,0.00,0.00,0.00
2014-06-10 20:20:00,0,48160,0,0.00,0,0,0,0,40520,50000,2962,50000,0,0,0,0,0.00,0.00,0.00,0.00
2014-06-10 20:30:00,0,48501,0,0.00,0,0,0,0,46232,50000,1428,48502,0,0,0,0,0.00,0.00,0.00,0.00
2014-06-10 20:40:00,0,49314,0,0.00,0,0,0,0,44378,50000,1675,50000,0,0,0,0,0.00,0.00,0.00,0.00
2014-06-10 20:50:00,0,49901,0,0.00,0,0,0,0,49009,50000,297,50000,0,0,0,0,0.00,0.00,0.00,0.00
2014-06-10 21:00:00,0,49680,0,0.00,0,0,0,0,46805,50000,958,50000,0,0,0,0,0.00,0.00,0.00,0.00
2014-06-10 21:10:00,0,49964,0,0.00,0,0,0,0,49642,50000,107,50000,0,0,0,0,0.00,0.00,0.00,0.00
2014-06-10 21:20:00,0,49932,0,0.00,0,0,0,0,49433,50000,170,50000,0,0,0,0,0.00,0.00,0.00,0.00
2014-06-10 21:30:00,0,49797,0,0.00,0,0,0,0,48623,50000,437,50000,0,0,0,0,0.00,0.00,0.00,0.00
2014-06-10 21:40:00,0,49548,0,0.00,0,0,0,0,46702,50000,1016,50000,0,0,0,0,0.00,0.00,0.00,0.00
2014-06-10 21:50:00,0,49400,0,0.00,0,0,0,0,46491,50000,1221,50000,0,0,0,0,0.00,0.00,0.00,0.00
2014-06-10 22:00:00,0,50000,0,0.00,0,0,0,0,50000,50000,0,50000,0,0,0,0,0.00,0.00,0.00,0.00
2014-06-10 22:10:00,0,49900,0,0.00,0,0,0,0,48996,50000,301,50000,0,0,0,0,0.00,0.00,0.00,0.00
2014-06-10 22:20:00,0,49937,0,0.00,0,0,0,0,49372,50000,188,50000,0,0,0,0,0.00,0.00,0.00,0.00
2014-06-10 22:30:00,0,49965,0,0.00,0,0,0,0,49820,50000,69,50000,0,0,0,0,0.00,0.00,0.00,0.00
2014-06-10 22:40:00,0,49214,0,0.00,0,0,0,0,45046,50000,1637,50000,0,0,0,0,0.00,0.00,0.00,0.00
2014-06-10 22:50:00,0,42583,0,0.00,0,0,0,0,29603,50000,7281,43397,0,0,0,0,0.00,0.00,0.00,0.00
2014-06-10 23:00:00,0,44739,0,0.00,0,0,0,0,35660,50000,5898,47596,0,0,0,0,0.00,0.00,0.00,0.00
2014-06-10 23:10:00,0,40718,53,0.20,0,0,0,0,34305,45382,3374,40742,51,61,4,51,0.00,0.40,0.10,0.20
2014-06-10 23:20:00,0,49439,23,0.01,0,0,0,0,44393,50000,1682,50000,0,61,29,0,0.00,0.05,0.02,0.00
2014-06-10 23:30:00,0,23466,49,9.87,0,0,0,0,9580,50000,14910,16073,0,62,25,62,0.00,23.65,8.43,11.62
2014-06-10 23:40:00,0,18130,61,1.54,0,0,0,0,13470,25203,3524,17826,61,61,0,61,0.25,3.55,1.06,1.12
2014-06-10 23:50:00,0,13812,57,2.46,0,0,0,0,9334,18688,3315,13701,52,61,4,61,0.70,6.45,2.17,1.43
